Ashland, WI

11:54 AM CDT on September 30, 2016 (GMT -0500)
Kennedy Memorial

Weather History for KASX - March, 2013

Change the Weather History Date:

Tuesday, March 26, 2013

  Actual Average Record
Temperature  
Mean Temperature 33 °F -  
Max Temperature 39 °F 42 °F 75 °F (2007)
Min Temperature 27 °F 20 °F -16 °F (1965)
Degree Days  
Heating Degree Days 32    
Moisture  
Dew Point 22 °F    
Average Humidity 64    
Maximum Humidity 81    
Minimum Humidity 41    
Precipitation  
Precipitation 0.00 in - - ()
Sea Level Pressure  
Sea Level Pressure 30.28 in    
Wind  
Wind Speed 1 mph (North)    
Max Wind Speed 8 mph    
Max Gust Speed -    
Visibility 10 miles    
Events      
Averages and records for this station are not official NWS values.
T = Trace of Precipitation, MM = Missing Value Source: NWS Daily Summary

Daily Weather History Graph

Daily Weather History Graph

Search for Another Location

Airport or City:

Trip Planner

Search our weather history database for the weather conditions in past years. The results will help you decide how hot, cold, wet, or windy it might be!

Date:

Astronomy

Mar. 26, 2013 Rise Set
Actual Time 6:54 AM CDT 7:24 PM CDT
Civil Twilight 6:24 AM CDT 7:55 PM CDT
Nautical Twilight 5:48 AM CDT 8:31 PM CDT
Astronomical Twilight 5:11 AM CDT 9:08 PM CDT
Moon 7:03 PM CDT (3/26) 6:12 AM CDT (3/26)
Length of Visible Light 13h 31m
Length of Day
12h 30m
Waxing Gibbous, 99% of the Moon is Illuminated
Mar 26
Waxing Gibbous
Mar 27
Full
Apr 2
Last Quarter
Apr 10
New
Apr 18
First Quarter

Hourly Weather History & Observations

Time (CDT) Temp. Windchill Dew Point Humidity Pressure Visibility Wind Dir Wind Speed Gust Speed Precip Events Conditions
12:53 AM 28.0 °F - 21.9 °F 78% 30.24 in 10.0 mi Calm Calm - N/A   Overcast
1:53 AM 27.0 °F - 21.9 °F 81% 30.24 in 10.0 mi Calm Calm - N/A   Overcast
2:53 AM 27.0 °F - 21.9 °F 81% 30.24 in 10.0 mi Calm Calm - N/A   Overcast
3:53 AM 27.0 °F - 21.0 °F 78% 30.24 in 10.0 mi Calm Calm - N/A   Overcast
4:53 AM 28.0 °F 22.8 °F 21.0 °F 75% 30.24 in 10.0 mi West 4.6 mph - N/A   Overcast
6:53 AM 27.0 °F - 19.9 °F 75% 30.26 in 10.0 mi Calm Calm - N/A   Overcast
7:53 AM 28.0 °F - 21.0 °F 75% 30.27 in 10.0 mi Calm Calm - N/A   Overcast
8:53 AM 30.0 °F 26.5 °F 21.9 °F 72% 30.28 in 10.0 mi WNW 3.5 mph - N/A   Overcast
9:53 AM 34.0 °F - 23.0 °F 64% 30.29 in 10.0 mi Calm Calm - N/A   Overcast
10:53 AM 35.1 °F 32.2 °F 23.0 °F 61% 30.29 in 10.0 mi East 3.5 mph - N/A   Overcast
11:53 AM 37.9 °F - 21.9 °F 53% 30.29 in 10.0 mi Calm Calm - N/A   Overcast
12:53 PM 39.0 °F 34.8 °F 19.0 °F 45% 30.28 in 10.0 mi NNW 5.8 mph - N/A   Overcast
1:53 PM 39.0 °F 36.8 °F 17.1 °F 41% 30.28 in 10.0 mi North 3.5 mph - N/A   Overcast
2:53 PM 37.0 °F 32.4 °F 23.0 °F 57% 30.28 in 10.0 mi NNW 5.8 mph - N/A   Overcast
3:53 PM 37.0 °F 31.0 °F 23.0 °F 57% 30.28 in 10.0 mi NNE 8.1 mph - N/A   Overcast
4:53 PM 37.0 °F 34.5 °F 23.0 °F 57% 30.27 in 10.0 mi NNE 3.5 mph - N/A   Overcast
5:53 PM 37.0 °F 34.5 °F 19.9 °F 50% 30.28 in 10.0 mi East 3.5 mph - N/A   Overcast
6:53 PM 36.0 °F - 21.9 °F 57% 30.29 in 10.0 mi Calm Calm - N/A   Overcast
7:53 PM 34.0 °F - 21.0 °F 59% 30.29 in 10.0 mi Calm Calm - N/A   Overcast
8:53 PM 32.0 °F - 23.0 °F 69% 30.30 in 10.0 mi Calm Calm - N/A   Overcast
9:53 PM 32.0 °F - 21.9 °F 66% 30.30 in 10.0 mi Calm Calm - N/A   Overcast
10:53 PM 32.0 °F - 21.9 °F 66% 30.30 in 10.0 mi Calm Calm - N/A   Overcast
11:53 PM 32.0 °F - 21.9 °F 66% 30.31 in 10.0 mi Calm Calm - N/A   Overcast